Flag for Spain Weather past 2 weeks in Santa Cruz de Tenerife, Canary Islands, Spain

Now
68 °F

Partly sunny.


Feels Like: 68 °F
Forecast: 72 / 77 °F
Wind: 10 mph from Northwest

Location: Tenerife / Los Rodeos

Current Time: Sep 2, 2014 at 10:37:43 AM

Latest Report: Sep 2, 2014 at 10:00 AM


Visibility: N/A

Pressure: 30.09 "Hg

Humidity: 94%

Dew point: 66 °F

Location of Santa Cruz de TenerifeLocation

Historic Weather in Santa Cruz de Tenerife — Graph

°F

Santa Cruz de Tenerife temperature yesterday

Maximum temperature yesterday: 75 °F (at 1:30 PM)
Minimum temperature yesterday: 66 °F (at 6:00 AM)
Average temperature yesterday: 70 °F

Past Weeks' High & Low Weather Summary

 TemperatureHumidityPressure
High88 °F (Aug 21, 1:30 PM)100% (Aug 18, 9:00 AM)30.18 "Hg (Aug 18, 9:00 AM)
Low61 °F (Aug 19, 6:00 AM)23% (Aug 29, 11:00 PM)30.04 "Hg (Aug 18, 4:00 PM)
Average71 °F79%30.12 "Hg
* Reported Aug 18 9:00 AM — Sep 2 9:30 AM, Santa Cruz de Tenerife, Weather by CustomWeather, © 2014

Note: Actual official high and low records may vary slightly from our data, if they occured in-between our weather recording intervals... More about our weather records

Advertising

Santa Cruz de Tenerife weather history for previous 24 hours

 ConditionsComfort  
Time TempWeatherWind HumidityBarometerVisibility
9:30 AM
Sep 2
66 °FPartly sunny.10 mph100%30.09 "HgN/A
9:00 AM66 °FScattered clouds.13 mph100%30.09 "HgN/A
8:30 AM66 °FPassing clouds.14 mph100%30.07 "HgN/A
8:00 AM66 °FPassing clouds.10 mph100%30.07 "HgN/A
7:30 AM66 °FPassing clouds.10 mph100%30.07 "HgN/A
7:00 AM66 °FPassing clouds.12 mph100%30.07 "HgN/A
6:30 AM66 °FPassing clouds.13 mph100%30.07 "HgN/A
6:00 AM66 °FPassing clouds.15 mph100%30.07 "HgN/A
11:00 PM
Sep 1
66 °FPassing clouds.17 mph100%30.09 "HgN/A
10:30 PM66 °FPassing clouds.16 mph100%30.09 "HgN/A
10:00 PM66 °FPassing clouds.15 mph100%30.09 "HgN/A
9:30 PM66 °FPassing clouds.14 mph100%30.09 "HgN/A
9:00 PM66 °FPartly sunny.16 mph100%30.09 "HgN/A
8:30 PM68 °FPartly sunny.16 mph100%30.07 "HgN/A
8:00 PM68 °FPartly sunny.18 mph100%30.07 "HgN/A
7:30 PM70 °FScattered clouds.20 mph94%30.07 "HgN/A
7:00 PM70 °FPartly sunny.21 mph88%30.07 "HgN/A
6:30 PM72 °FScattered clouds.20 mph83%30.07 "HgN/A
6:00 PM72 °FPartly sunny.18 mph78%30.07 "HgN/A
5:30 PM73 °FScattered clouds.20 mph74%30.07 "HgN/A
5:00 PM73 °FScattered clouds.20 mph74%30.07 "HgN/A
4:30 PM73 °FScattered clouds.20 mph74%30.09 "HgN/A
4:00 PM75 °FScattered clouds.17 mph69%30.09 "HgN/A
3:30 PM75 °FScattered clouds.16 mph69%30.09 "HgN/A
3:00 PM75 °FScattered clouds.15 mph69%30.09 "HgN/A
2:30 PM73 °FScattered clouds.15 mph78%30.12 "HgN/A
2:00 PM75 °FScattered clouds.16 mph69%30.12 "HgN/A
1:30 PM75 °FScattered clouds.15 mph74%30.12 "HgN/A
1:00 PM73 °FScattered clouds.15 mph78%30.12 "HgN/A
12:30 PM73 °FScattered clouds.17 mph83%30.12 "HgN/A
12:00 PM72 °FScattered clouds.16 mph100%30.12 "HgN/A
11:30 AM72 °FScattered clouds.16 mph94%30.12 "HgN/A
11:00 AM70 °FScattered clouds.15 mph100%30.12 "HgN/A
10:30 AM72 °FScattered clouds.16 mph94%30.12 "HgN/A
10:00 AM70 °FPassing clouds.16 mph100%30.09 "HgN/A
Weather by CustomWeather, © 2014

See weather overviewHow to use our weather pages